User: anonymous   Login
Location: Unspecified
(0.0000°N, 0.0000°E)
Time: 03:59:23
(UTC+00:00)
Language:

BUGSAT 1 - Orbit

View from above orbital plane
View from above orbital plane
View from above satellite
View from above satellite

Ground track
Ground track

The orbit data is extracted from the following two-line orbital elements,

1 40014U 14033E   17327.75674952  .00000688  00000-0  68098-4 0  9992
2 40014  97.9617 254.8270 0032500 153.9161 206.3722 14.94912623187047
Epoch (UTC): 23 November 2017 18:09:43
Eccentricity: 0.0032500
inclination: 97.9617°
perigee height: 560 km
apogee height: 605 km
right ascension of ascending node: 254.8270°
argument of perigee: 153.9161°
revolutions per day: 14.94912623
mean anomaly at epoch: 206.3722°
orbit number at epoch: 18704

The dashed part of the orbit path shows where the satellite is in the earth's shadow,  

DLR